World > North America > United States > Michigan

Ann Arbor, Michigan Regional Weather

Lat: 42.28N, Lon: 83.73W
Wx Zone: MIZ075
Warning FLW WEATHER ALERT - (More Info. Click Here) Warning
Feedback

Ann Arbor, MI Regional Weather

Expires:201907211700;;411289
ASUS43 KDTX 211610
RWRMI 
MICHIGAN HOURLY REGIONAL WEATHER ROUNDUP
NATIONAL WEATHER SERVICE DETROIT/PONTIAC MI
1200 PM EDT SUN JUL 21 2019

NOTE: "FAIR" INDICATES FEW OR NO CLOUDS BELOW 12,000 FEET WITH NO
SIGNIFICANT WEATHER AND/OR OBSTRUCTION TO VISIBILITY.


MIZ047>049-052>055-059>063-066>070-074>076-081>083-211700-
SOUTHEAST LOWER MICHIGAN
  
CITY           SKY/WX    TMP DP  RH WIND       PRES   REMARKS
ADRIAN         FAIR      80  69  69 CALM      29.96S                  
ALMA           FAIR      79  56  44 NE9       29.96S                  
ANN ARBOR        N/A    N/A N/A N/A MISG      29.95F                  
BAD AXE        FAIR      77  55  46 N5        29.96R                  
CARO           FAIR      79  59  50 N3        29.95F                  
DETROIT CITY   PTSUNNY   75  68  78 SE9       29.96F                  
DETROIT        CLOUDY    78  69  73 CALM      29.95S                  
FLINT          PTSUNNY   77  68  73 E6        29.95F                  
GROSSE ILE     FAIR      77  71  80 CALM      29.95S                  
HILLSDALE      FAIR      78  70  77 S5        29.97R                  
HOWELL         CLOUDY    73  67  83 CALM      29.97S                  

CITY           SKY/WX    TMP DP  RH WIND       PRES   REMARKS
JACKSON        PTSUNNY   76  71  85 NW5       29.98R                  
LAMBERTVILLE   FAIR     N/A N/A N/A CALM      29.93F                  
LANSING        FAIR      74  68  81 SE6       29.98R                  
LAPEER         FAIR      76  60  55 NE5       29.97S                  
MASON          CLOUDY    72  71  94 S5        29.98R                  
MONROE         FAIR      82  77  86 N6        29.94S                  
MT. CLEMENS    PTSUNNY   75  63  64 NE9       29.96S                  
PONTIAC        CLOUDY    73  68  84 CALM      29.95R                  
PORT HOPE        N/A     75  61  61 NW6       29.95R                  
PORT HURON     FAIR      73  61  64 NE3       29.97S                  
TRI CITIES     FAIR      80  57  45 NE6       29.96F                  
MIDLAND        FAIR      81  57  44 E5        29.95S                  
TROY           FAIR      75  66  75 CALM      29.97S                  
SAGINAW HB     FAIR      79  55  44 N7        29.96R                  
$$

SKY/WX - Weather  TMP - Temperature  DP - Dew Point  RH - Relative Humidity
WIND - Wind Direction/Speed PRES - Barometric Pressure VSB - Visibility
WCI - Wind Chill Index E13G22 Wind - East Wind 13 mph/Gusts of 22 mph